Regional Weather Roundup
Issued by NWS Newport/Morehead, NC

Current Version | Previous Version | Text Only | Print | Product List | Glossary Off
Versions: 1 2 3 4 5 6 7 8 9 10 11 12 13 14 15 16 17 18 19 20 21 22 23 24 25 26 27 28 29 30 31 32 33 34 35 36 37 38 39 40 41 42 43 44 45 46 47 48 49 50
000 ASUS42 KMHX 292325 RWRMHX WEATHER ROUNDUP FOR EASTERN NORTH CAROLINA NATIONAL WEATHER SERVICE NEWPORT/MOREHEAD CITY NC 700 PM EDT SAT APR 29 2017 NOTE: "FAIR" INDICATES FEW OR NO CLOUDS BELOW 12,000 FEET WITH NO SIGNIFICANT WEATHER AND/OR OBSTRUCTIONS TO VISIBILITY NCZ015>017-031-032-045>047-102-103-300000- NORTH COAST CITY SKY/WX TMP DP RH WIND PRES REMARKS EDENTON CLEAR 85 71 64 SW6 30.13S ELIZABETH CITY CLEAR 83 73 72 S12 30.12S KITTY HAWK PTCLDY 78 71 77 S9 30.14R MANTEO CLEAR 78 72 80 SW15 30.15S $$ NCZ045>047-081-094-103-104-300000- CENTRAL COAST CITY SKY/WX TMP DP RH WIND PRES REMARKS FRISCO CLEAR 77 71 82 SW13 30.19S HAZE $$ NCZ095-097-098-100-101-300000- SOUTHERN COAST CITY SKY/WX TMP DP RH WIND PRES REMARKS BEAUFORT CLEAR 76 73 91 SW13 30.20R CEDAR ISLAND NOT AVBL JACKSONVILLE CLEAR 78 71 79 S10 30.17R PINEY ISLAND CLEAR N/A N/A N/A S14G23 30.19R WILMINGTON SUNNY 79 69 71 S14G22 30.18S $$ NCZ011>013-027>030-043-044-078>080-089-090>093-098-300000- COASTAL PLAIN CITY SKY/WX TMP DP RH WIND PRES REMARKS AHOSKIE N/A 81 71 71 S3 30.12S CLINTON SUNNY 83 73 70 S5 30.15S ELIZABETHTOWN SUNNY 82 71 68 S9 30.16S GOLDSBORO SUNNY 86 67 54 S5 30.12S GREENVILLE PTCLDY 84 70 61 SW6 30.15S HAVELOCK NOT AVBL KENANSVILLE SUNNY 82 70 65 S3 30.16R KINSTON SUNNY 86 66 51 S8 30.15S NEW BERN CLEAR 80 71 74 S10G23 30.18R RICHLANDS CLEAR 80 72 76 S9 30.17R ROCKY MOUNT SUNNY 84 71 65 S8 30.13S WASHINGTON CLEAR 82 73 72 S9 30.14S WHITEVILLE SUNNY 80 70 72 S10 30.17S $$ AMZ130-135-150-152-154-156-158-170-250-252-270-ANZ085-086-088-633-658-670-300000- MARINE OBSERVATIONS STATION/POSITION TIME TEMP WIND PRES WAVE SWELL AIR SEA DIR/SP/G HT/PER HT/PER (UTC) (F) (DEG/KT/KT) (MB) (FT/S) (FT/S) CHESAPEAKE LIGHT NOT AVBL 64 E VA BEACH 2250 65 58 210/ 17/ 19 1019.9 3/ 4 2/ 7 DUCK 2300 80 58 190/ 14/ 16 1019.5 2 E DUCK 2300 61 N/A 2/ 7 OREGON INLET 2300 76 79 200/ 19/ 25 1021.1 13E OREGON INLT 2248 64 N/A 3/ 6 2/ 7 HATTERAS CG 2300 76 75 200/ 10/ 16 1022.2 DIAMOND BUOY 2250 77 76 220/ 16/ 17 1022.5 4/ 7 2/ 7 CAPE LOOKOUT 2300 75 200/ 10/ 12 1022.4 BEAUFORT LAB 2300 75 75 210/ 12/ 16 1021.8 30 SE NEW RVR IN 2308 74 210/ 10/ 12 1022.9 30 SE NEW RVR IN 2313 73 N/A 3/ 6 27 SE WRIGHTSVLE 2308 75 74 200/ 12/ 17 1022.2 5 SE WRIGHTSVLE 2308 74 72 190/ 8/ 12 1022.2 225 S CAPE HAT 2250 75 76 160/ 12/ 14 1024.6 3/ 7 2/ 7 41 SE CHARLESTON 2300 77 76 170/ 8/ 12 1022.3 $$

USA.gov is the U.S. government's official web portal to all federal, state and local government web resources and services.